Ankeny, IA

11:15 PM CDT on April 24, 2018 (GMT -0500)
Ankeny Regional

Weather History for KIKV - December, 2013

Change the Weather History Date:

Tuesday, December 10, 2013

  Actual Average (KDSM) Record (KDSM)
Temperature  
Mean Temperature 13 °F -  
Max Temperature 21 °F 34 °F 66 °F (1890)
Min Temperature 5 °F 17 °F -19 °F (1919)
Degree Days  
Heating Degree Days 52    
Moisture  
Dew Point 6 °F    
Average Humidity 61    
Maximum Humidity 74    
Minimum Humidity 50    
Precipitation  
Precipitation 0.00 in - - ()
Sea Level Pressure  
Sea Level Pressure 30.14 in    
Wind  
Wind Speed 14 mph (WSW)    
Max Wind Speed 30 mph    
Max Gust Speed 38 mph    
Visibility 10 miles    
Events Snow    
Averages and records for this station are not official NWS values.
T = Trace of Precipitation, MM = Missing Value Source: NWS Daily Summary

Daily Weather History Graph

Daily Weather History Graph

Search for Another Location

Airport or City:

Astronomy

Dec. 10, 2013 Rise Set
Actual Time 7:30 AM CST 4:43 PM CST
Civil Twilight 6:59 AM CST 5:15 PM CST
Nautical Twilight 6:24 AM CST 5:50 PM CST
Astronomical Twilight 5:50 AM CST 6:23 PM CST
Moon 12:49 PM CST (12/10) 12:44 AM CST (12/10)
Length of Visible Light 10h 15m
Length of Day
9h 13m
Waxing Gibbous, 62% of the Moon is Illuminated
Dec 10
Waxing Gibbous
Dec 17
Full
Dec 25
Last Quarter
Jan 1
New
Jan 7
First Quarter

Hourly Weather History & Observations

Time (CST) Temp. Windchill Dew Point Humidity Pressure Visibility Wind Dir Wind Speed Gust Speed Precip Events Conditions
12:15 AM 5.0 °F -13.0 °F -5.8 °F 61% 30.08 in 10.0 mi SSW 15.0 mph 20.7 mph N/A   Mostly Cloudy
12:35 AM 8.6 °F -10.0 °F -4.0 °F 57% 30.05 in 10.0 mi SSW 18.4 mph - N/A Snow Light Snow
12:55 AM 10.4 °F -7.2 °F -2.2 °F 57% 30.05 in 10.0 mi SW 17.3 mph 23.0 mph N/A   Overcast
1:15 AM 12.2 °F -4.8 °F -0.4 °F 57% 30.04 in 10.0 mi SW 17.3 mph 24.2 mph N/A   Overcast
1:35 AM 14.0 °F -5.1 °F 1.4 °F 57% 30.03 in 10.0 mi SW 24.2 mph 33.4 mph N/A Snow Light Snow
1:55 AM 12.2 °F -5.3 °F 1.4 °F 62% 30.02 in 10.0 mi SW 18.4 mph 28.8 mph N/A   Overcast
2:15 AM 12.2 °F -4.3 °F 1.4 °F 62% 30.02 in 10.0 mi SW 16.1 mph 23.0 mph N/A   Overcast
2:35 AM 14.0 °F -2.0 °F 1.4 °F 57% 30.02 in 10.0 mi SW 16.1 mph - N/A   Overcast
2:55 AM 14.0 °F -1.4 °F 1.4 °F 57% 30.01 in 10.0 mi SW 15.0 mph 23.0 mph N/A   Scattered Clouds
3:15 AM 14.0 °F -0.8 °F 3.2 °F 62% 30.00 in 10.0 mi SW 13.8 mph 24.2 mph N/A   Partly Cloudy
3:35 AM 15.8 °F 0.3 °F 3.2 °F 58% 30.00 in 10.0 mi SW 16.1 mph 25.3 mph N/A   Mostly Cloudy
4:35 AM 17.6 °F 2.2 °F 5.0 °F 58% 29.99 in 10.0 mi WSW 17.3 mph 32.2 mph N/A Snow Light Snow
4:55 AM 15.8 °F 1.4 °F 5.0 °F 62% 30.00 in 10.0 mi WSW 13.8 mph - N/A   Overcast
5:15 AM 15.8 °F 2.1 °F 5.0 °F 62% 30.01 in 10.0 mi WSW 12.7 mph 21.9 mph N/A   Scattered Clouds
5:35 AM 15.8 °F 1.4 °F 6.8 °F 68% 30.01 in 10.0 mi West 13.8 mph 21.9 mph N/A   Mostly Cloudy
5:55 AM 17.6 °F 3.2 °F 6.8 °F 63% 30.03 in 10.0 mi West 15.0 mph 21.9 mph N/A   Overcast
6:15 AM 17.6 °F 3.7 °F 8.6 °F 68% 30.04 in 10.0 mi West 13.8 mph 21.9 mph N/A   Overcast
6:35 AM 17.6 °F 4.3 °F 10.4 °F 73% 30.06 in 10.0 mi West 12.7 mph - N/A   Mostly Cloudy
6:55 AM 19.4 °F 1.1 °F 10.4 °F 68% 30.06 in 10.0 mi WNW 27.6 mph 33.4 mph N/A Snow Light Snow
7:15 AM 17.6 °F -1.9 °F 6.8 °F 63% 30.08 in 5.0 mi WNW 29.9 mph 38.0 mph N/A Snow Light Snow
7:35 AM 15.8 °F -2.3 °F 5.0 °F 62% 30.10 in 9.0 mi WNW 23.0 mph 32.2 mph N/A Snow Light Snow
7:55 AM 15.8 °F -1.9 °F 5.0 °F 62% 30.11 in 10.0 mi WNW 21.9 mph 31.1 mph N/A   Clear
8:15 AM 15.8 °F -1.1 °F 5.0 °F 62% 30.12 in 10.0 mi WNW 19.6 mph - N/A   Clear
8:35 AM 15.8 °F -0.6 °F 5.0 °F 62% 30.13 in 10.0 mi WNW 18.4 mph 26.5 mph N/A   Clear
8:55 AM 15.8 °F -1.1 °F 5.0 °F 62% 30.15 in 10.0 mi WNW 19.6 mph 28.8 mph N/A   Clear
9:15 AM 15.8 °F -1.5 °F 5.0 °F 62% 30.17 in 9.0 mi WNW 20.7 mph 27.6 mph N/A   Clear
9:35 AM 15.8 °F -2.3 °F 5.0 °F 62% 30.17 in 9.0 mi WNW 23.0 mph 28.8 mph N/A Snow Light Snow
9:55 AM 15.8 °F -2.7 °F 3.2 °F 58% 30.18 in 10.0 mi WNW 24.2 mph 32.2 mph N/A   Clear
10:15 AM 15.8 °F -1.5 °F 5.0 °F 62% 30.20 in 9.0 mi WNW 20.7 mph 27.6 mph N/A   Partly Cloudy
10:35 AM 15.8 °F -0.2 °F 5.0 °F 62% 30.22 in 9.0 mi WNW 17.3 mph 27.6 mph N/A   Partly Cloudy
10:55 AM 17.6 °F 1.3 °F 5.0 °F 58% 30.20 in 10.0 mi WNW 19.6 mph 25.3 mph N/A   Clear
11:15 AM 17.6 °F 1.7 °F 5.0 °F 58% 30.20 in 10.0 mi WNW 18.4 mph 25.3 mph N/A   Clear
11:35 AM 17.6 °F 3.2 °F 5.0 °F 58% 30.20 in 10.0 mi West 15.0 mph 21.9 mph N/A   Clear
11:55 AM 17.6 °F 1.3 °F 3.2 °F 53% 30.20 in 10.0 mi WNW 19.6 mph 25.3 mph N/A   Clear
12:15 PM 17.6 °F 2.2 °F 5.0 °F 58% 30.20 in 10.0 mi West 17.3 mph - N/A   Clear
12:35 PM 17.6 °F 3.2 °F 3.2 °F 53% 30.20 in 10.0 mi WNW 15.0 mph - N/A   Clear
12:55 PM 19.4 °F 7.9 °F 5.0 °F 54% 30.19 in 10.0 mi West 10.4 mph - N/A   Clear
1:15 PM 19.4 °F 6.6 °F 5.0 °F 54% 30.19 in 10.0 mi West 12.7 mph - N/A   Clear
1:35 PM 19.4 °F 6.6 °F 6.8 °F 58% 30.18 in 10.0 mi West 12.7 mph - N/A   Clear
1:55 PM 19.4 °F 6.6 °F 6.8 °F 58% 30.18 in 10.0 mi West 12.7 mph - N/A   Clear
2:15 PM 21.2 °F 10.9 °F 6.8 °F 54% 30.17 in 10.0 mi WSW 9.2 mph 17.3 mph N/A   Clear
2:35 PM 21.2 °F 12.6 °F 6.8 °F 54% 30.17 in 10.0 mi WSW 6.9 mph - N/A   Clear
2:55 PM 19.4 °F 9.5 °F 6.8 °F 58% 30.17 in 10.0 mi West 8.1 mph - N/A   Clear
3:15 PM 21.2 °F 13.6 °F 5.0 °F 50% 30.17 in 10.0 mi WSW 5.8 mph - N/A   Clear
3:35 PM 21.2 °F 12.6 °F 6.8 °F 54% 30.18 in 10.0 mi West 6.9 mph - N/A   Clear
3:55 PM 19.4 °F 11.5 °F 6.8 °F 58% 30.18 in 10.0 mi WSW 5.8 mph - N/A   Partly Cloudy
4:15 PM 19.4 °F 10.4 °F 6.8 °F 58% 30.18 in 10.0 mi SW 6.9 mph - N/A   Clear
4:35 PM 19.4 °F 14.3 °F 6.8 °F 58% 30.18 in 10.0 mi WSW 3.5 mph - N/A   Partly Cloudy
4:55 PM 19.4 °F 11.5 °F 6.8 °F 58% 30.19 in 10.0 mi SW 5.8 mph - N/A   Partly Cloudy
5:15 PM 19.4 °F - 8.6 °F 63% 30.18 in 10.0 mi Calm Calm - N/A   Mostly Cloudy
5:35 PM 19.4 °F - 8.6 °F 63% 30.18 in 10.0 mi Calm Calm - N/A   Overcast
5:55 PM 19.4 °F 12.8 °F 8.6 °F 63% 30.20 in 10.0 mi SW 4.6 mph - N/A   Overcast
6:15 PM 19.4 °F - 8.6 °F 63% 30.20 in 10.0 mi Calm Calm - N/A   Overcast
6:35 PM 19.4 °F - 8.6 °F 63% 30.21 in 10.0 mi Calm Calm - N/A   Overcast
6:55 PM 21.2 °F 14.9 °F 10.4 °F 63% 30.21 in 10.0 mi South 4.6 mph - N/A   Overcast
7:15 PM 21.2 °F 16.4 °F 10.4 °F 63% 30.21 in 10.0 mi South 3.5 mph - N/A   Overcast
7:35 PM 21.2 °F - 10.4 °F 63% 30.21 in 10.0 mi Calm Calm - N/A   Overcast
7:55 PM 19.4 °F 14.3 °F 10.4 °F 68% 30.20 in 10.0 mi SE 3.5 mph - N/A   Overcast
8:15 PM 21.2 °F 16.4 °F 10.4 °F 63% 30.20 in 10.0 mi SSE 3.5 mph - N/A   Overcast
8:35 PM 21.2 °F 14.9 °F 10.4 °F 63% 30.20 in 10.0 mi SE 4.6 mph - N/A   Overcast
8:55 PM 19.4 °F 11.5 °F 10.4 °F 68% 30.18 in 10.0 mi ESE 5.8 mph - N/A   Overcast
9:15 PM 19.4 °F 14.3 °F 10.4 °F 68% 30.19 in 10.0 mi SE 3.5 mph - N/A   Overcast
9:35 PM 19.4 °F - 10.4 °F 68% 30.19 in 10.0 mi Calm Calm - N/A   Overcast
9:55 PM 21.2 °F - 10.4 °F 63% 30.19 in 10.0 mi Calm Calm - N/A   Overcast
10:15 PM 21.2 °F 14.9 °F 10.4 °F 63% 30.18 in 10.0 mi East 4.6 mph - N/A   Overcast
10:35 PM 21.2 °F 14.9 °F 12.2 °F 68% 30.20 in 10.0 mi NNE 4.6 mph - N/A   Overcast
10:55 PM 21.2 °F 16.4 °F 12.2 °F 68% 30.21 in 10.0 mi ENE 3.5 mph - N/A   Overcast
11:15 PM 21.2 °F 16.4 °F 12.2 °F 68% 30.21 in 10.0 mi NE 3.5 mph - N/A   Overcast
11:35 PM 21.2 °F - 14.0 °F 74% 30.21 in 10.0 mi Calm Calm - N/A   Overcast
11:55 PM 21.2 °F 16.4 °F 12.2 °F 68% 30.21 in 10.0 mi SE 3.5 mph - N/A   Overcast